TimeCST,TemperatureF,Dew PointF,Humidity,Sea Level PressureIn,VisibilityMPH,Wind Direction,Wind SpeedMPH,Gust SpeedMPH,PrecipitationIn,Events,Conditions,WindDirDegrees,DateUTC
12:15 AM,0.7,-6.7,71,30.26,10.0,West,11.5,-,N/A,,Clear,270,2013-02-01 06:15:00
12:35 AM,0.5,-7.1,70,30.27,10.0,West,13.8,-,N/A,,Clear,280,2013-02-01 06:35:00
12:55 AM,0.5,-6.7,72,30.28,10.0,West,16.1,19.6,N/A,,Clear,270,2013-02-01 06:55:00
1:15 AM,0.3,-7.2,70,30.29,10.0,West,12.7,21.9,N/A,,Clear,280,2013-02-01 07:15:00
1:35 AM,0.3,-6.7,72,30.29,10.0,West,12.7,19.6,N/A,,Clear,280,2013-02-01 07:35:00
1:55 AM,-0.0,-6.9,73,30.30,10.0,WNW,12.7,21.9,N/A,,Clear,290,2013-02-01 07:55:00
2:15 AM,-0.2,-7.4,72,30.31,10.0,WNW,16.1,21.9,N/A,,Clear,290,2013-02-01 08:15:00
2:35 AM,-0.4,-6.9,74,30.32,10.0,West,12.7,18.4,N/A,,Clear,270,2013-02-01 08:35:00
2:55 AM,-0.6,-7.6,72,30.32,10.0,West,11.5,19.6,N/A,,Clear,280,2013-02-01 08:55:00
3:15 AM,-0.9,-8.0,72,30.32,10.0,WNW,9.2,-,N/A,,Clear,290,2013-02-01 09:15:00
3:35 AM,-1.3,-8.1,73,30.32,10.0,West,9.2,-,N/A,,Clear,280,2013-02-01 09:35:00
3:55 AM,-1.5,-8.7,71,30.32,10.0,WNW,11.5,17.3,N/A,,Clear,300,2013-02-01 09:55:00
4:15 AM,-1.5,-8.7,71,30.33,10.0,West,10.4,-,N/A,,Clear,270,2013-02-01 10:15:00
4:35 AM,-1.8,-9.2,71,30.33,10.0,WNW,11.5,16.1,N/A,,Clear,290,2013-02-01 10:35:00
4:55 AM,-2.2,-9.2,72,30.34,10.0,West,9.2,16.1,N/A,,Clear,270,2013-02-01 10:55:00
5:15 AM,-2.2,-9.4,71,30.35,10.0,West,10.4,-,N/A,,Clear,270,2013-02-01 11:15:00
5:35 AM,-2.4,-9.4,72,30.35,10.0,West,10.4,16.1,N/A,,Clear,280,2013-02-01 11:35:00
5:55 AM,-2.6,-9.4,73,30.35,10.0,WNW,9.2,-,N/A,,Clear,290,2013-02-01 11:55:00
6:15 AM,-2.6,-9.6,72,30.36,10.0,West,8.1,-,N/A,,Clear,280,2013-02-01 12:15:00
6:35 AM,-2.9,-9.6,73,30.36,10.0,West,9.2,-,N/A,,Clear,280,2013-02-01 12:35:00
6:55 AM,-3.1,-9.6,74,30.37,10.0,West,8.1,-,N/A,,Clear,260,2013-02-01 12:55:00
7:15 AM,-3.1,-9.9,73,30.37,10.0,West,11.5,16.1,N/A,,Clear,270,2013-02-01 13:15:00
7:35 AM,-3.3,-10.3,72,30.37,10.0,WNW,10.4,-,N/A,,Clear,290,2013-02-01 13:35:00
7:55 AM,-3.1,-10.5,71,30.37,10.0,West,9.2,-,N/A,,Clear,280,2013-02-01 13:55:00
8:15 AM,-3.1,-10.8,70,30.37,10.0,WNW,10.4,-,N/A,,Clear,290,2013-02-01 14:15:00
8:35 AM,-2.6,-10.8,68,30.38,10.0,West,11.5,-,N/A,,Clear,280,2013-02-01 14:35:00
8:55 AM,-2.2,-10.5,68,30.38,10.0,West,8.1,-,N/A,,Clear,270,2013-02-01 14:55:00
9:15 AM,-1.8,-10.8,66,30.39,10.0,WNW,9.2,-,N/A,,Clear,290,2013-02-01 15:15:00
9:35 AM,-1.5,-10.7,65,30.39,10.0,West,10.4,-,N/A,,Clear,280,2013-02-01 15:35:00
9:55 AM,-0.9,-10.1,65,30.39,10.0,WNW,8.1,-,N/A,,Clear,290,2013-02-01 15:55:00
10:15 AM,-0.6,-9.9,65,30.39,10.0,West,9.2,-,N/A,,Clear,260,2013-02-01 16:15:00
10:35 AM,-0.2,-9.4,65,30.39,10.0,WSW,10.4,-,N/A,,Clear,250,2013-02-01 16:35:00
10:55 AM,0.9,-8.1,66,30.39,10.0,WSW,10.4,-,N/A,,Clear,240,2013-02-01 16:55:00
11:15 AM,1.6,-7.8,65,30.39,10.0,WSW,8.1,-,N/A,,Clear,240,2013-02-01 17:15:00
11:35 AM,1.6,-8.3,63,30.38,10.0,West,8.1,-,N/A,,Clear,260,2013-02-01 17:35:00
11:55 AM,2.3,-7.6,63,30.38,10.0,West,6.9,-,N/A,,Clear,270,2013-02-01 17:55:00
12:15 PM,3.0,-6.9,63,30.37,10.0,West,9.2,-,N/A,,Clear,260,2013-02-01 18:15:00
12:35 PM,3.6,-5.8,65,30.36,10.0,SW,9.2,-,N/A,,Clear,220,2013-02-01 18:35:00
12:55 PM,3.7,-6.5,62,30.34,10.0,WSW,8.1,-,N/A,,Clear,240,2013-02-01 18:55:00
1:15 PM,4.8,-4.7,65,30.34,10.0,SW,9.2,-,N/A,,Clear,230,2013-02-01 19:15:00
1:35 PM,5.0,-5.4,62,30.33,10.0,SW,8.1,-,N/A,,Clear,230,2013-02-01 19:35:00
1:55 PM,5.7,-4.5,63,30.32,10.0,SW,9.2,-,N/A,,Clear,230,2013-02-01 19:55:00
2:15 PM,5.9,-4.5,62,30.30,10.0,WSW,9.2,-,N/A,,Clear,240,2013-02-01 20:15:00
2:35 PM,6.3,-3.8,63,30.30,10.0,SW,6.9,-,N/A,,Clear,230,2013-02-01 20:35:00
2:55 PM,6.8,-3.3,63,30.30,10.0,SW,10.4,-,N/A,,Clear,230,2013-02-01 20:55:00
3:15 PM,6.8,-2.6,66,30.31,10.0,SW,13.8,-,N/A,,Clear,230,2013-02-01 21:15:00
3:35 PM,6.8,-2.2,67,30.30,10.0,SW,12.7,-,N/A,,Clear,230,2013-02-01 21:35:00
3:55 PM,7.3,-1.7,67,30.29,10.0,SW,12.7,-,N/A,,Clear,230,2013-02-01 21:55:00
4:15 PM,6.8,-2.0,67,30.29,10.0,SSW,6.9,-,N/A,,Scattered Clouds,210,2013-02-01 22:15:00
4:35 PM,6.6,-2.2,67,30.28,10.0,SW,9.2,-,N/A,,Mostly Cloudy,230,2013-02-01 22:35:00
4:55 PM,6.4,-1.5,70,30.27,10.0,SSW,4.6,-,N/A,,Mostly Cloudy,200,2013-02-01 22:55:00
5:15 PM,7.5,-0.4,70,30.26,10.0,SSW,5.8,-,N/A,,Clear,210,2013-02-01 23:15:00
5:35 PM,8.4,-0.2,68,30.25,10.0,SW,6.9,-,N/A,,Mostly Cloudy,220,2013-02-01 23:35:00
5:55 PM,8.6,-0.0,68,30.25,10.0,SW,6.9,-,N/A,,Overcast,230,2013-02-01 23:55:00
6:15 PM,9.1,0.9,69,30.24,10.0,SSW,4.6,-,N/A,,Overcast,210,2013-02-02 00:15:00
6:35 PM,9.7,2.5,73,30.23,10.0,SSW,8.1,-,N/A,,Overcast,200,2013-02-02 00:35:00
6:55 PM,10.4,1.9,69,30.22,10.0,SSW,8.1,-,N/A,,Overcast,200,2013-02-02 00:55:00
7:15 PM,10.9,2.7,69,30.21,10.0,South,9.2,-,N/A,,Overcast,190,2013-02-02 01:15:00
7:35 PM,11.3,3.2,70,30.21,10.0,South,5.8,-,N/A,,Overcast,170,2013-02-02 01:35:00
7:55 PM,11.8,4.3,72,30.20,10.0,South,5.8,-,N/A,,Overcast,190,2013-02-02 01:55:00
8:15 PM,12.2,5.4,74,30.19,7.0,South,8.1,-,N/A,Snow,Light Snow,190,2013-02-02 02:15:00
8:35 PM,12.7,6.4,76,30.19,4.0,South,6.9,-,N/A,Snow,Light Snow,190,2013-02-02 02:35:00
8:55 PM,12.9,7.9,80,30.18,5.0,South,5.8,-,N/A,Snow,Light Snow,170,2013-02-02 02:55:00
9:15 PM,12.9,8.4,82,30.17,4.0,SSE,6.9,-,N/A,Snow,Light Snow,160,2013-02-02 03:15:00
9:35 PM,13.1,9.1,84,30.18,2.0,SSE,3.5,-,N/A,Snow,Light Snow,150,2013-02-02 03:35:00
9:55 PM,13.1,9.7,86,30.17,2.5,SSE,3.5,-,N/A,Snow,Light Snow,150,2013-02-02 03:55:00
10:15 PM,13.5,10.4,88,30.16,2.5,ESE,3.5,-,N/A,Snow,Light Snow,120,2013-02-02 04:15:00
10:35 PM,13.6,10.6,88,30.16,3.0,ESE,3.5,-,N/A,Snow,Light Snow,120,2013-02-02 04:35:00
10:55 PM,13.8,11.1,89,30.15,4.0,SE,3.5,-,N/A,Snow,Light Snow,130,2013-02-02 04:55:00
11:15 PM,14.2,11.5,89,30.14,2.0,SE,3.5,-,N/A,Snow,Light Snow,140,2013-02-02 05:15:00
11:35 PM,15.1,12.6,90,30.13,7.0,SSE,4.6,-,N/A,Snow,Light Snow,150,2013-02-02 05:35:00
11:55 PM,15.8,13.1,89,30.11,7.0,SSE,6.9,-,N/A,Snow,Light Snow,160,2013-02-02 05:55:00